Weather History for Marathon, FL

Change the Weather History Date:

Saturday, January 12, 2013

  Actual Average Record
Temperature  
Mean Temperature 79 °F 69 °F  
Max Temperature 83 °F 75 °F 83 °F (2013)
Min Temperature 74 °F 64 °F 56 °F (2011)
Degree Days  
Heating Degree Days 0 1  
Month to date heating degree days 0 21  
Since 1 July heating degree days 6 42  
Cooling Degree Days 14 6  
Month to date cooling degree days 153 72  
Year to date cooling degree days 153 72  
Growing Degree Days 28 (Base 50)    
Moisture  
Dew Point 65 °F    
Average Humidity 65    
Maximum Humidity 74    
Minimum Humidity 55    
Precipitation  
Precipitation 0.00 in 0.04 in 1.14 in (2008)
Month to date precipitation 0.11 0.68  
Year to date precipitation 0.11 0.68  
Snow  
Snow 0.00 in - - ()
Month to date snowfall 0.0  
Since 1 July snowfall 0.0  
Snow Depth 0.00 in    
Sea Level Pressure  
Sea Level Pressure 30.11 in    
Wind  
Wind Speed 8 mph (East)    
Max Wind Speed 14 mph    
Max Gust Speed 20 mph    
Visibility 10 miles    
Events      
T = Trace of Precipitation, MM = Missing Value Source: NWS Daily Summary

Daily Weather History Graph

Daily Weather History Graph

Search for Another Location

Airport:

Trip Planner

Search our weather history database for the weather conditions in past years. The results will help you decide how hot, cold, wet, or windy it might be!

Date:

Astronomy

Jan. 12, 2013 Rise Set
Actual Time 7:10 AM EST 5:54 PM EST
Civil Twilight 6:45 AM EST 6:19 PM EST
Nautical Twilight 6:17 AM EST 6:47 PM EST
Astronomical Twilight 5:50 AM EST 7:15 PM EST
Moon 7:38 AM EST (1/12) 7:09 PM EST (1/12)
Length of Visible Light 11h 33m
Length of Day
10h 44m
New Moon, 1% of the Moon is Illuminated
Jan 12
New Moon
Jan 18
First Quarter
Jan 26
Full
Feb 3
Last Quarter
Feb 10
New

Hourly Weather History & Observations

Time (EST) Temp. Heat Index Dew Point Humidity Pressure Visibility Wind Dir Wind Speed Gust Speed Precip Events Conditions
12:53 AM 75.9 °F - 66.9 °F 74% 30.12 in 10.0 mi East 8.1 mph 16.1 mph N/A   Clear
1:53 AM 75.9 °F - 66.0 °F 71% 30.11 in 10.0 mi East 9.2 mph - N/A   Partly Cloudy
2:53 AM 75.9 °F - 64.9 °F 69% 30.11 in 10.0 mi East 9.2 mph 16.1 mph N/A   Mostly Cloudy
3:32 AM 75.2 °F - 64.4 °F 69% 30.10 in 10.0 mi ESE 9.2 mph - N/A   Scattered Clouds
3:53 AM 75.0 °F - 64.0 °F 69% 30.10 in 10.0 mi East 9.2 mph - N/A   Clear
4:53 AM 75.0 °F - 64.0 °F 69% 30.10 in 10.0 mi East 9.2 mph - N/A   Partly Cloudy
5:53 AM 75.0 °F - 64.0 °F 69% 30.11 in 10.0 mi East 6.9 mph - N/A   Clear
6:53 AM 75.0 °F - 64.9 °F 71% 30.12 in 10.0 mi East 6.9 mph - N/A   Clear
7:53 AM 75.9 °F - 64.9 °F 69% 30.14 in 10.0 mi East 6.9 mph - N/A   Partly Cloudy
8:53 AM 77.0 °F - 66.0 °F 69% 30.14 in 10.0 mi East 9.2 mph - N/A   Scattered Clouds
9:53 AM 79.0 °F - 66.0 °F 64% 30.15 in 10.0 mi East 9.2 mph 17.3 mph N/A   Clear
10:53 AM 81.0 °F 82.7 °F 64.9 °F 58% 30.15 in 10.0 mi East 8.1 mph - N/A   Clear
11:53 AM 82.0 °F 83.8 °F 64.9 °F 56% 30.12 in 10.0 mi East 10.4 mph 16.1 mph N/A   Clear
12:53 PM 82.0 °F 83.8 °F 64.9 °F 56% 30.09 in 10.0 mi East 10.4 mph 19.6 mph N/A   Partly Cloudy
1:53 PM 81.0 °F 82.5 °F 64.0 °F 56% 30.08 in 10.0 mi East 11.5 mph 18.4 mph N/A   Clear
2:53 PM 80.1 °F 81.7 °F 64.0 °F 58% 30.07 in 10.0 mi East 9.2 mph 19.6 mph N/A   Partly Cloudy
3:53 PM 79.0 °F - 64.0 °F 60% 30.07 in 10.0 mi East 10.4 mph 18.4 mph N/A   Clear
4:53 PM 78.1 °F - 64.0 °F 62% 30.08 in 10.0 mi East 6.9 mph - N/A   Scattered Clouds
5:53 PM 75.9 °F - 63.0 °F 64% 30.09 in 10.0 mi East 8.1 mph 17.3 mph N/A   Clear
6:53 PM 75.9 °F - 63.0 °F 64% 30.10 in 10.0 mi East 6.9 mph - N/A   Partly Cloudy
8:53 PM 75.0 °F - 64.0 °F 69% 30.11 in 10.0 mi East 4.6 mph - N/A   Clear
9:53 PM 75.0 °F - 64.9 °F 71% 30.10 in 10.0 mi ENE 4.6 mph - N/A   Clear
10:53 PM 75.0 °F - 66.0 °F 73% 30.09 in 10.0 mi East 5.8 mph - N/A   Partly Cloudy
11:53 PM 75.9 °F - 66.0 °F 71% 30.08 in 10.0 mi East 10.4 mph - N/A   Partly Cloudy